[[{"header":{"parameterUnit":"m.s-1","parameterCategory":1,"la1":30.2992,"la2":30.254,"lo1":-89.0895,"lo2":-89.0443,"dy":0.0025,"dx":0.0025,"nx":19,"ny":19,"refTime":"2026-04-20T09:00:00:Z","depth":0,"parameterNumber":2,"parameterNumberName":"U-component_of_WINDS"},"data":[0,0,0,-5.7083,-5.7085,-5.7193,-5.7193,-5.7364,-5.7366,0,0,0,0,0,0,0,0,0,0,0,-5.707,-5.7072,-5.7082,-5.7086,-5.7193,-5.7193,-5.7364,-5.7366,0,0,0,0,0,0,0,0,0,0,0,-5.7069,-5.7072,-5.7074,-5.7086,-5.7192,-5.7193,-5.7363,-5.7271,0,0,0,0,0,0,0,0,0,0,-5.7161,-5.7168,-5.7071,-5.7074,-5.7087,-5.7192,-5.7193,-5.7266,-5.7277,-5.733,0,-5.7381,0,-5.7376,-5.7379,-5.738,0,0,0,-5.7072,-5.7159,-5.717,-5.7074,-5.7088,-5.7192,-5.714,-5.7271,-5.7284,-5.7345,-5.7383,-5.7389,-5.7379,-5.7381,-5.7382,-5.7736,-5.7738,0,0,-5.7066,-5.71,-5.7162,-5.7179,-5.7163,-5.7137,-5.7144,-5.7278,-5.7323,-5.7384,-5.7392,-5.7382,-5.7382,-5.7384,-5.7734,-5.7736,0,0,0,-5.7058,-5.7097,-5.7104,-5.7173,-5.719,-5.714,-5.7148,-5.7317,-5.7317,-5.7394,-5.7384,-5.7383,-5.7386,-5.7731,-5.7735,-5.7885,0,0,0,-5.7054,-5.7092,-5.7102,-5.7124,-5.7188,-5.7255,-5.7185,-5.7307,-5.7321,-5.7383,-5.7383,-5.7388,-5.7728,-5.7733,-5.7875,-5.7952,0,0,0,-5.7057,-5.7092,-5.7114,-5.7126,-5.7173,-5.7251,-5.7258,-5.731,-5.7317,-5.738,-5.7388,-5.7727,-5.7732,-5.7867,-5.7937,-5.8058,0,0,0,-5.707,-5.7244,-5.7117,-5.7309,-5.7172,-5.7342,-5.7257,-5.7382,-5.7454,-5.7384,-5.7729,-5.7734,-5.7864,-5.7928,-5.8049,-5.8169,-5.8221,0,0,-5.731,-5.7275,-5.7385,-5.7274,-5.7476,-5.7323,-5.7548,-5.7581,-5.7555,-5.7678,-5.7686,-5.7879,-5.7936,-5.8056,-5.8494,-5.8535,0,0,0,-5.7473,-5.7553,-5.7598,-5.7669,-5.7699,-5.7732,-5.7727,-5.774,-5.7842,-5.7624,-5.7951,-5.7985,-5.8054,-5.811,-5.8146,-5.8205,-5.776,-5.776,-5.7759,-5.7864,-5.7822,-5.8002,-5.7975,-5.8044,-5.8038,-5.8092,-5.8109,-5.8044,-5.8123,-5.816,-5.8431,-5.8497,-5.8524,-5.8586,-5.8216,-5.8217,-5.8217,-5.8218,-5.8215,-5.8324,-5.8236,-5.838,-5.8336,-5.8456,-5.8458,-5.841,-5.8518,-5.8398,-5.8457,-5.8334,-5.8571,-5.8623,-5.8229,-5.8227,-5.8225,-5.8224,-5.8224,-5.8471,-5.8516,-5.8527,-5.8627,-5.8709,-5.8674,-5.8783,-5.8736,-5.8694,-5.8752,-5.879,-5.8787,-5.8783,-5.8772,-5.8773,-5.8774,-5.8775,-5.8776,-5.8776,-5.8733,-5.8741,-5.8838,-5.8886,-5.8926,-5.8975,-5.8971,-5.9011,-5.9043,-5.9002,-5.9002,-5.8934,-5.8599,-5.8519,-5.8791,-5.8788,-5.8786,-5.8785,-5.8784,-5.9113,-5.9019,-5.9169,-5.9211,-5.9264,-5.9351,-5.929,-5.9376,-5.9401,-5.9457,-5.9376,-5.9134,-5.9096,-5.9067,-5.9001,-5.9381,-5.9381,-5.9381,-5.9381,-5.9332,-5.9307,-5.9451,-5.9521,-5.9584,-5.9544,-5.9719,-5.9719,-5.9705,-5.9719,-5.9657,-5.9563,-5.9536,-5.9514,-5.9475,-5.9413,-5.9889,-5.989,-5.989,-5.9565,-5.9545,-5.9702,-5.9685,-5.9724,-5.976,-5.9924,-6.001,-5.9973,-5.991,-5.9731,-5.9709,-5.9558,-5.9509,-5.9447,-5.9388,-5.9273,0,0]},{"header":{"parameterUnit":"m.s-1","parameterCategory":1,"la1":30.2992,"la2":30.254,"lo1":-89.0895,"lo2":-89.0443,"dy":0.0025,"dx":0.0025,"nx":19,"ny":19,"refTime":"2026-04-20T09:00:00:Z","depth":0,"parameterNumber":3,"parameterNumberName":"V-component_of_WINDS"},"data":[0,0,0,-3.2672,-3.2673,-3.2674,-3.2674,-3.2696,-3.2696,0,0,0,0,0,0,0,0,0,0,0,-3.2684,-3.2685,-3.2672,-3.2673,-3.2674,-3.2674,-3.2696,-3.2696,0,0,0,0,0,0,0,0,0,0,0,-3.2684,-3.2685,-3.2685,-3.2673,-3.2674,-3.2674,-3.2696,-3.2687,0,0,0,0,0,0,0,0,0,0,-3.2682,-3.2706,-3.2685,-3.2685,-3.2673,-3.2674,-3.2674,-3.2687,-3.2688,-3.2704,0,-3.2721,0,-3.2709,-3.2699,-3.2699,0,0,0,-3.2664,-3.2705,-3.2694,-3.2685,-3.2673,-3.2674,-3.2671,-3.2687,-3.2689,-3.2705,-3.2721,-3.2721,-3.2709,-3.2699,-3.2699,-3.282,-3.2821,0,0,-3.2664,-3.2691,-3.2693,-3.2695,-3.2697,-3.2671,-3.2671,-3.2688,-3.2707,-3.2721,-3.2722,-3.271,-3.2699,-3.27,-3.2819,-3.282,0,0,0,-3.2669,-3.2692,-3.268,-3.2695,-3.2694,-3.2671,-3.2672,-3.2706,-3.27,-3.2722,-3.271,-3.27,-3.27,-3.2818,-3.282,-3.2896,0,0,0,-3.2669,-3.2695,-3.268,-3.2697,-3.2694,-3.27,-3.269,-3.2699,-3.27,-3.271,-3.27,-3.2701,-3.2817,-3.2819,-3.2891,-3.2927,0,0,0,-3.268,-3.2696,-3.27,-3.2699,-3.27,-3.2699,-3.2694,-3.2698,-3.2693,-3.2699,-3.2701,-3.2816,-3.2818,-3.2887,-3.2921,-3.2967,0,0,0,-3.27,-3.2769,-3.2702,-3.2774,-3.2701,-3.2746,-3.2693,-3.2726,-3.274,-3.27,-3.2817,-3.2819,-3.2886,-3.2917,-3.2963,-3.3012,-3.3035,0,0,-3.2802,-3.2782,-3.2822,-3.2763,-3.2827,-3.2744,-3.2819,-3.2806,-3.2781,-3.2808,-3.2811,-3.2893,-3.292,-3.2966,-3.3151,-3.317,0,0,0,-3.2864,-3.2893,-3.2904,-3.2919,-3.291,-3.2905,-3.2877,-3.2872,-3.2894,-3.2801,-3.2921,-3.2936,-3.2962,-3.2984,-3.3,-3.302,-3.2831,-3.283,-3.283,-3.3049,-3.3013,-3.3077,-3.3041,-3.3056,-3.3026,-3.3034,-3.3022,-3.2982,-3.3011,-3.3019,-3.3136,-3.3163,-3.3174,-3.3196,-3.3041,-3.3042,-3.3042,-3.3042,-3.3196,-3.3232,-3.3175,-3.3217,-3.3179,-3.3213,-3.3186,-3.3157,-3.3183,-3.3127,-3.3148,-3.309,-3.3195,-3.3212,-3.3047,-3.3046,-3.3046,-3.3045,-3.3045,-3.3314,-3.3324,-3.3317,-3.3333,-3.335,-3.331,-3.3338,-3.3302,-3.3268,-3.3289,-3.3293,-3.3292,-3.3286,-3.3293,-3.3293,-3.3294,-3.3294,-3.3295,-3.3295,-3.344,-3.3428,-3.3456,-3.3451,-3.3455,-3.3456,-3.3425,-3.3428,-3.3422,-3.3393,-3.3393,-3.335,-3.3212,-3.3178,-3.3301,-3.33,-3.3299,-3.3298,-3.3298,-3.3603,-3.356,-3.3603,-3.3607,-3.3598,-3.3617,-3.3569,-3.3578,-3.3575,-3.359,-3.3542,-3.3445,-3.3422,-3.3409,-3.3381,-3.3549,-3.3549,-3.3549,-3.3549,-3.3703,-3.3687,-3.3722,-3.3731,-3.3735,-3.3696,-3.3746,-3.3722,-3.3691,-3.3687,-3.3657,-3.3617,-3.3605,-3.3589,-3.3572,-3.3546,-3.3751,-3.3752,-3.3752,-3.3801,-3.3784,-3.3834,-3.3802,-3.3792,-3.3784,-3.3829,-3.3841,-3.3797,-3.3759,-3.3683,-3.3675,-3.3608,-3.3589,-3.3551,-3.3526,-3.3476,0,0]}]]